STARLINK-31005, 58486

Orbit data source: Space-Track

STARLINK-31005, 58486 is a payload satellite owned by SpaceX/Seattle (US) in LEO that was launched on Sun, 03 Dec 2023 UTC via an FALCON 9 launch vehicle from the Air Force Eastern Test Range (AFETR). Payload-class satellites include a variety of spacecraft equipped with specific instruments for various scientific and technological missions. These include communications satellites like Starlink; space stations such as the ISS; scientific satellites like the Hubble; Earth observation satellites from companies like Planet Labs, Umbra, and HawkEye 360; GPS; miniature CubeSats for education and research; and military/defense satellites.

Loading next visibility...
Identifier
58486, 2023-186P
Orbit
LEO
Country
Flag of USUS
Related business
Manufacturer
SpaceX/Seattle
Mission
Operational Commercial Communications
Bus & Motor
STARLINK V2M, Unknown motor
Mass
730 kg wet, ~700 kg dry
Launch date (UTC)
2023-12-03 (3 years ago)
Launch vehicle
FALCON 9
Launch site
Air Force Eastern Test Range (AFETR)
Object type
Payload
Rocket body
Debris
Shape & HBR
Box + 2 Pan, 17.7 m
Radar Cross Section
33.884 m², Large (>1 m²)

Expand to show TLE details & history
Last TLE update: 3 days ago

TLE from 3 days ago
0 STARLINK-31005
1 58486U 23186P   26170.55329967  .00000170  00000-0  15702-4 0  9990
2 58486  43.0023 208.4865 0001777 273.5452  86.5196 15.27576105141468
Epoch: 2026-06-19T13:16Z
TLE epoch observation values (Epoch: 2026-06-19T13:16:45.091Z)
Latitude
-0.00005°
Longitude
101.51795°
Altitude
482.763 km
Speed
7.626 km/s
True Right ascension
13h 53m 56s
True Declination
0° 00' 00"
Sunlit
Object was in full shadow at epoch
Visualization orbit readout
Latitude
Unknown
Longitude
Unknown
Altitude
Unknown
Speed
Unknown
Apparent Right ascension
Unknown
Apparent Declination
Unknown
Sunlit
N/A
Visualization observer readout
Local Sidereal Time
21:26:24
Azimuth
Unknown
Elevation
Unknown
Doppler factor
Unknown
Orbital elements
Apogee altitude
486.225 km
Perigee altitude
483.786 km
Semi-major axis
6,863.143 km
Eccentricity
0.00018
Inclination
43.0023°
RAAN
208.4865°
Arg. of periapsis
273.5452°
True anomaly
86.53993°
Mean anomaly
86.5196°
Eccentric anomaly
86.52976°
Mean motion
3.81732 °/min
Orbital period
94.31 mins
BSTAR
0.000015702
Loading maneuver chart data...
Computing Atmospheric mass density...
Loading historical data...
Loading historical data...
Loading historical data...
Loading historical data...
Loading historical data...
Loading historical data...
Loading historical data...

Documentation

Showing up to 5 results
|